Date String (YYYY-MM-DD hh:mm:ss) UTC,Instrument flags,Ambient pressure (hPa),Sample flow (lpm),Bypass flow (lpm),Sample temperature (°C),Ambient temperature (°C),ASC tube jacket temperature (°C),LED temperature (°C),Box temperature (°C),Sample RH (%),Span deviation,Mass concentration (μg/m³),Mass concentration (μg/m³),Mass concentration (μg/m³)
DateTimeUTC,F1_M11,P_M11,Q1_M11,Q2_M11,T1_M11,T2_M11,T3_M11,T4_M11,T5_M11,U1_M11,ZSPAN_M11,X0_M11,X2_M11,X1_M11
2023-05-24 04:00:00,,0830.7,4.99,0.00,29.7,28.4,00.0,37.9,31.4,28.5,0003.2,0033.32,0020.53,0019.13
2023-05-24 04:01:00,,0830.7,5.00,0.00,29.7,27.9,00.0,37.9,31.4,28.5,0003.2,0033.54,0020.30,0018.95
2023-05-24 04:02:00,,0830.7,5.00,0.00,29.7,26.1,00.0,37.8,31.1,28.6,0003.2,0034.03,0020.12,0018.77
2023-05-24 04:03:00,,0830.7,5.01,0.00,29.6,25.3,00.0,37.7,30.9,28.7,0003.2,0034.46,0020.07,0018.68
2023-05-24 04:04:00,,0830.7,5.01,0.00,29.5,25.4,00.0,37.7,30.8,28.8,0003.1,0034.77,0020.02,0018.65
2023-05-24 04:05:00,,0830.7,5.00,0.00,29.4,25.7,00.0,37.7,30.7,29.0,0003.4,0034.35,0019.96,0018.59
2023-05-24 04:06:00,,0830.7,5.01,0.00,29.3,26.0,00.0,37.7,30.8,29.1,0003.5,0033.64,0019.86,0018.52
2023-05-24 04:07:00,,0830.6,5.01,0.00,29.3,26.4,00.0,37.7,30.8,29.3,0003.6,0033.68,0019.80,0018.48
2023-05-24 04:08:00,,0830.7,4.99,0.00,29.3,26.6,00.0,37.7,30.9,29.3,0003.7,0033.92,0019.74,0018.45
2023-05-24 04:09:00,,0830.7,5.00,0.00,29.3,26.9,00.0,37.7,30.9,29.3,0003.8,0032.99,0019.72,0018.42
2023-05-24 04:10:00,,0830.6,4.99,0.00,29.3,27.1,00.0,37.7,30.9,29.4,0003.9,0033.06,0019.66,0018.34
2023-05-24 04:11:00,,0830.7,5.00,0.00,29.3,27.3,00.0,37.7,31.0,29.4,0004.0,0032.38,0019.63,0018.31
2023-05-24 04:12:00,,0830.6,4.99,0.00,29.3,27.4,00.0,37.7,31.0,29.5,0004.0,0031.57,0019.59,0018.27
2023-05-24 04:13:00,,0830.6,5.00,0.00,29.3,27.5,00.0,37.7,31.0,29.3,0003.9,0030.41,0019.48,0018.22
2023-05-24 04:14:00,,0830.6,5.00,0.00,29.3,27.6,00.0,37.7,31.0,29.1,0003.9,0030.72,0019.44,0018.21
2023-05-24 04:15:00,,0830.6,5.00,0.00,29.4,27.7,00.0,37.7,31.0,29.1,0003.9,0031.63,0019.47,0018.22
2023-05-24 04:16:00,,0830.6,5.00,0.00,29.4,27.8,00.0,37.7,31.1,28.9,0003.8,0032.73,0019.51,0018.25
2023-05-24 04:17:00,,0830.6,5.00,0.00,29.4,27.9,00.0,37.7,31.1,28.8,0003.7,0033.24,0019.59,0018.34
2023-05-24 04:18:00,,0830.6,5.00,0.00,29.4,27.9,00.0,37.7,31.1,28.8,0003.7,0034.65,0019.70,0018.39
2023-05-24 04:19:00,,0830.5,5.00,0.00,29.4,28.0,00.0,37.7,31.1,28.7,0003.6,0033.98,0019.76,0018.47
2023-05-24 04:20:00,,0830.5,5.00,0.00,29.5,28.0,00.0,37.8,31.1,28.7,0003.5,0034.53,0019.77,0018.51
2023-05-24 04:21:00,,0830.5,5.01,0.00,29.5,28.1,00.0,37.8,31.2,28.6,0003.5,0034.47,0019.85,0018.63
2023-05-24 04:22:00,,0830.5,5.00,0.00,29.5,28.1,00.0,37.8,31.2,28.5,0003.5,0034.45,0019.93,0018.73
2023-05-24 04:23:00,,0830.5,5.00,0.00,29.5,28.1,00.0,37.8,31.2,28.4,0003.5,0035.09,0020.09,0018.89
2023-05-24 04:24:00,,0830.5,4.99,0.00,29.5,28.1,00.0,37.8,31.2,28.1,0003.5,0035.67,0020.34,0019.14
2023-05-24 04:25:00,,0830.4,4.98,0.00,29.6,28.2,00.0,37.8,31.2,27.9,0003.6,0036.02,0020.51,0019.31
2023-05-24 04:26:00,,0830.6,4.99,0.00,29.6,28.2,00.0,37.8,31.3,27.6,0003.7,0035.96,0020.71,0019.53
2023-05-24 04:27:00,,0830.4,5.01,0.00,29.6,28.2,00.0,37.9,31.3,27.5,0003.8,0035.12,0020.87,0019.72
2023-05-24 04:28:00,,0830.7,5.00,0.00,29.6,28.2,00.0,37.9,31.3,27.4,0003.8,0035.75,0021.16,0019.93
2023-05-24 04:29:00,,0830.7,5.01,0.00,29.6,28.2,00.0,37.9,31.3,27.3,0003.8,0034.56,0021.35,0020.17
2023-05-24 04:30:00,,0830.4,4.98,0.00,29.6,28.2,00.0,37.9,31.3,27.2,0003.8,0034.73,0021.56,0020.36
2023-05-24 04:31:00,,0830.5,4.99,0.00,29.7,28.3,00.0,37.9,31.3,27.0,0003.7,0034.91,0021.84,0020.63
2023-05-24 04:32:00,,0830.4,5.02,0.00,29.7,28.3,00.0,37.9,31.3,26.7,0003.7,0035.34,0022.15,0020.92
2023-05-24 04:33:00,,0830.4,5.01,0.00,29.7,28.3,00.0,38.0,31.4,26.4,0003.7,0035.30,0022.48,0021.25
2023-05-24 04:34:00,,0830.4,4.99,0.00,29.7,28.3,00.0,38.0,31.4,26.3,0003.6,0035.28,0022.78,0021.57
2023-05-24 04:35:00,,0830.4,4.99,0.00,29.7,28.3,00.0,38.0,31.4,26.3,0003.6,0035.42,0023.04,0021.85
2023-05-24 04:36:00,,0830.4,5.01,0.00,29.7,28.3,00.0,38.0,31.4,26.1,0003.6,0034.67,0023.30,0022.13
2023-05-24 04:37:00,,0830.4,5.01,0.00,29.7,28.3,00.0,38.0,31.4,26.1,0003.4,0033.98,0023.45,0022.30
2023-05-24 04:38:00,,0830.4,5.00,0.00,29.7,28.3,00.0,38.0,31.4,26.1,0003.4,0034.31,0023.66,0022.50
2023-05-24 04:39:00,,0830.4,4.99,0.00,29.8,28.3,00.0,38.1,31.4,26.4,0003.4,0033.82,0023.74,0022.61
2023-05-24 04:40:00,,0830.3,4.99,0.00,29.8,28.2,00.0,38.1,31.4,26.2,0003.4,0034.24,0023.88,0022.72
2023-05-24 04:41:00,,0830.3,5.00,0.00,29.8,26.8,00.0,38.0,31.3,25.9,0003.4,0034.76,0024.05,0022.89
2023-05-24 04:42:00,,0830.3,5.01,0.00,29.7,25.4,00.0,37.9,31.0,26.2,0003.4,0034.68,0024.18,0023.03
2023-05-24 04:43:00,,0830.3,5.01,0.00,29.6,25.1,00.0,37.8,30.8,26.3,0003.3,0035.44,0024.24,0023.10
2023-05-24 04:44:00,,0830.3,5.01,0.00,29.5,25.3,00.0,37.8,30.8,26.3,0003.3,0036.05,0024.28,0023.09
2023-05-24 04:45:00,,0830.3,5.00,0.00,29.4,25.7,00.0,37.8,30.8,26.4,0003.3,0036.04,0024.29,0023.08
2023-05-24 04:46:00,,0830.3,5.00,0.00,29.4,26.1,00.0,37.8,30.8,26.4,0003.3,0036.26,0024.30,0023.04
2023-05-24 04:47:00,,0830.3,5.01,0.00,29.3,26.4,00.0,37.8,30.8,26.5,0003.3,0036.36,0024.23,0022.96
2023-05-24 04:48:00,,0830.3,4.99,0.00,29.3,26.6,00.0,37.8,30.9,26.6,0003.4,0036.18,0024.15,0022.89
2023-05-24 04:49:00,,0830.2,4.99,0.00,29.3,26.9,00.0,37.8,30.9,26.6,0003.3,0035.72,0024.08,0022.84
2023-05-24 04:50:00,,0830.2,4.99,0.00,29.3,27.0,00.0,37.7,30.9,26.6,0003.4,0036.04,0024.09,0022.83
2023-05-24 04:51:00,,0830.2,5.00,0.00,29.3,27.2,00.0,37.7,30.9,26.5,0003.5,0035.74,0024.04,0022.81
2023-05-24 04:52:00,,0830.2,5.01,0.00,29.3,27.3,00.0,37.7,30.9,26.5,0003.5,0036.74,0024.00,0022.79
2023-05-24 04:53:00,,0830.2,5.01,0.00,29.3,27.4,00.0,37.7,30.9,26.5,0003.5,0037.38,0023.93,0022.75
2023-05-24 04:54:00,,0830.3,4.99,0.00,29.3,27.5,00.0,37.7,30.9,26.7,0003.6,0036.51,0023.84,0022.66
2023-05-24 04:55:00,,0830.2,5.00,0.00,29.3,27.5,00.0,37.7,30.9,26.7,0003.6,0035.71,0023.73,0022.59
2023-05-24 04:56:00,,0830.3,5.01,0.00,29.3,27.6,00.0,37.7,31.0,26.8,0003.6,0035.95,0023.66,0022.53
2023-05-24 04:57:00,,0830.2,5.01,0.00,29.4,27.7,00.0,37.7,31.0,26.7,0003.7,0035.61,0023.50,0022.47
2023-05-24 04:58:00,,0830.2,5.00,0.00,29.4,27.7,00.0,37.7,31.0,26.7,0003.6,0035.25,0023.45,0022.42
2023-05-24 04:59:00,,0830.2,4.98,0.00,29.4,27.7,00.0,37.7,31.0,26.9,0003.6,0035.14,0023.41,0022.38
